When you browse on this site, cookies collect data to enhance your experience and personalize the content and advertising you see.
Visit our Privacy Policy to learn more. By continuing to use the site, you agree to this use of cookies and data.
  • en France
  • Liste des pays
  • À 7 jours
  • Température de l'eau
  • Carte météo
  • Widgets météo
  • user-avatar
    Se connecter

    Météo par heure à Wanning

    Ce jour, 21 Octobre, Lundi

    Heure Température Précipitation Vent Pression Humidité
    00:00 +25°C° 0.1 mm 2 m/s 759 mmHg 92%
    01:00 +25°C° 0 mm 2 m/s 759 mmHg 92%
    02:00 +25°C° 0.1 mm 2 m/s 759 mmHg 92%
    03:00 +25°C° 0.1 mm 2 m/s 759 mmHg 93%
    04:00 +25°C° 0.1 mm 2 m/s 759 mmHg 93%
    05:00 +25°C° 0 mm 2 m/s 759 mmHg 92%
    06:00 +26°C° 0 mm 2 m/s 759 mmHg 90%
    07:00 +27°C° 0 mm 2 m/s 760 mmHg 88%
    08:00 +27°C° 0.1 mm 3 m/s 760 mmHg 84%
    09:00 +28°C° 0.1 mm 3 m/s 760 mmHg 80%
    10:00 +29°C° 0.1 mm 4 m/s 760 mmHg 76%
    11:00 +29°C° 0 mm 4 m/s 759 mmHg 72%
    12:00 +29°C° 0 mm 4 m/s 758 mmHg 69%
    13:00 +30°C° 0 mm 4 m/s 758 mmHg 65%
    14:00 +29°C° 0 mm 4 m/s 757 mmHg 68%
    15:00 +29°C° 0 mm 4 m/s 757 mmHg 70%
    16:00 +28°C° 0 mm 4 m/s 757 mmHg 72%
    17:00 +27°C° 0 mm 4 m/s 757 mmHg 77%
    18:00 +26°C° 0 mm 3 m/s 758 mmHg 82%
    19:00 +25°C° 0 mm 3 m/s 758 mmHg 86%
    20:00 +25°C° 0 mm 3 m/s 758 mmHg 87%
    21:00 +25°C° 0 mm 3 m/s 758 mmHg 88%
    22:00 +24°C° 0 mm 3 m/s 758 mmHg 88%
    23:00 +24°C° 0 mm 2 m/s 758 mmHg 88%

    Demain, 22 Octobre, Mardi

    Heure Température Précipitation Vent Pression Humidité
    00:00 +24°C° 0 mm 2 m/s 758 mmHg 89%
    01:00 +24°C° 0 mm 2 m/s 757 mmHg 89%
    02:00 +24°C° 0 mm 2 m/s 757 mmHg 89%
    03:00 +24°C° 0 mm 2 m/s 757 mmHg 88%
    04:00 +24°C° 0 mm 2 m/s 757 mmHg 88%
    05:00 +24°C° 0 mm 2 m/s 757 mmHg 85%
    06:00 +25°C° 0 mm 2 m/s 758 mmHg 83%
    07:00 +26°C° 0 mm 1 m/s 758 mmHg 80%
    08:00 +27°C° 0 mm 2 m/s 758 mmHg 73%
    09:00 +29°C° 0 mm 2 m/s 758 mmHg 67%
    10:00 +30°C° 0 mm 3 m/s 758 mmHg 61%
    11:00 +30°C° 0 mm 3 m/s 757 mmHg 60%
    12:00 +30°C° 0 mm 3 m/s 757 mmHg 60%
    13:00 +30°C° 0 mm 3 m/s 756 mmHg 59%
    14:00 +30°C° 0 mm 3 m/s 756 mmHg 62%
    15:00 +29°C° 0 mm 3 m/s 756 mmHg 65%
    16:00 +28°C° 0 mm 2 m/s 755 mmHg 68%
    17:00 +27°C° 0 mm 2 m/s 756 mmHg 73%
    18:00 +26°C° 0 mm 2 m/s 756 mmHg 77%
    19:00 +25°C° 0 mm 2 m/s 756 mmHg 81%
    20:00 +25°C° 0 mm 2 m/s 756 mmHg 81%
    21:00 +25°C° 0 mm 2 m/s 757 mmHg 82%
    22:00 +24°C° 0 mm 2 m/s 757 mmHg 83%
    23:00 +24°C° 0 mm 2 m/s 757 mmHg 83%

    Après-demain, 23 Octobre, Mercredi

    Heure Température Précipitation Vent Pression Humidité
    00:00 +24°C° 0 mm 2 m/s 756 mmHg 84%
    01:00 +24°C° 0 mm 2 m/s 756 mmHg 85%
    02:00 +24°C° 0 mm 1 m/s 756 mmHg 85%
    03:00 +24°C° 0 mm 1 m/s 756 mmHg 86%
    04:00 +24°C° 0 mm 1 m/s 756 mmHg 86%
    05:00 +25°C° 0 mm 1 m/s 756 mmHg 84%
    06:00 +26°C° 0 mm 1 m/s 757 mmHg 83%
    07:00 +24°C° 0 mm 0 m/s 757 mmHg 81%
    08:00 +28°C° 0 mm 1 m/s 757 mmHg 76%
    09:00 +29°C° 0 mm 1 m/s 758 mmHg 70%
    10:00 +31°C° 0 mm 1 m/s 758 mmHg 65%
    11:00 +31°C° 0 mm 1 m/s 757 mmHg 65%
    12:00 +31°C° 0 mm 2 m/s 757 mmHg 65%
    13:00 +31°C° 0 mm 2 m/s 756 mmHg 65%
    14:00 +31°C° 0 mm 2 m/s 756 mmHg 68%
    15:00 +30°C° 0 mm 2 m/s 756 mmHg 71%
    16:00 +29°C° 0 mm 2 m/s 756 mmHg 75%
    17:00 +28°C° 0 mm 2 m/s 756 mmHg 80%
    18:00 +27°C° 0 mm 2 m/s 757 mmHg 85%
    19:00 +26°C° 0 mm 2 m/s 757 mmHg 90%
    20:00 +26°C° 0 mm 2 m/s 757 mmHg 91%
    21:00 +26°C° 0 mm 2 m/s 758 mmHg 91%
    22:00 +26°C° 0 mm 2 m/s 758 mmHg 92%
    23:00 +26°C° 0.1 mm 2 m/s 758 mmHg 93%

    24 Octobre, Jeudi

    Heure Température Précipitation Vent Pression Humidité
    00:00 +26°C° 0.1 mm 2 m/s 758 mmHg 93%
    01:00 +25°C° 0.1 mm 2 m/s 757 mmHg 94%
    02:00 +26°C° 0.1 mm 2 m/s 757 mmHg 93%
    03:00 +26°C° 0.1 mm 2 m/s 757 mmHg 93%
    04:00 +26°C° 0.1 mm 2 m/s 757 mmHg 92%
    05:00 +26°C° 0.2 mm 2 m/s 758 mmHg 91%
    06:00 +27°C° 0.2 mm 3 m/s 758 mmHg 91%
    07:00 +27°C° 0.2 mm 3 m/s 759 mmHg 90%
    08:00 +28°C° 1.1 mm 3 m/s 759 mmHg 88%
    09:00 +29°C° 1.1 mm 4 m/s 759 mmHg 85%
    10:00 +29°C° 1.1 mm 5 m/s 759 mmHg 83%
    11:00 +29°C° 1.9 mm 5 m/s 759 mmHg 84%
    12:00 +29°C° 1.9 mm 5 m/s 758 mmHg 86%
    13:00 +29°C° 1.9 mm 6 m/s 757 mmHg 87%
    14:00 +28°C° 1.3 mm 5 m/s 757 mmHg 89%
    15:00 +28°C° 1.3 mm 5 m/s 757 mmHg 90%
    16:00 +28°C° 1.3 mm 5 m/s 757 mmHg 92%
    17:00 +27°C° 1.2 mm 5 m/s 758 mmHg 93%
    18:00 +27°C° 1.2 mm 5 m/s 758 mmHg 93%
    19:00 +26°C° 1.2 mm 5 m/s 759 mmHg 94%
    20:00 +26°C° 0.5 mm 5 m/s 759 mmHg 94%
    21:00 +26°C° 0.5 mm 5 m/s 759 mmHg 94%
    22:00 +26°C° 0.5 mm 5 m/s 759 mmHg 93%
    23:00 +26°C° 0.2 mm 5 m/s 759 mmHg 93%

    25 Octobre, Vendredi

    Heure Température Précipitation Vent Pression Humidité
    00:00 +26°C° 0.2 mm 4 m/s 759 mmHg 93%
    01:00 +26°C° 0.2 mm 4 m/s 759 mmHg 93%
    02:00 +26°C° 0.1 mm 4 m/s 759 mmHg 92%
    03:00 +26°C° 0.1 mm 4 m/s 759 mmHg 92%
    04:00 +25°C° 0.1 mm 4 m/s 759 mmHg 92%
    05:00 +26°C° 0 mm 4 m/s 759 mmHg 91%
    06:00 +26°C° 0 mm 4 m/s 760 mmHg 89%
    07:00 +27°C° 0 mm 4 m/s 760 mmHg 88%
    08:00 +28°C° 0 mm 4 m/s 760 mmHg 82%
    09:00 +29°C° 0 mm 5 m/s 760 mmHg 76%
    10:00 +30°C° 0 mm 5 m/s 760 mmHg 69%
    11:00 +30°C° 0 mm 5 m/s 760 mmHg 69%
    12:00 +30°C° 0 mm 5 m/s 759 mmHg 69%
    13:00 +30°C° 0 mm 5 m/s 759 mmHg 69%
    14:00 +29°C° 0 mm 5 m/s 759 mmHg 71%
    15:00 +29°C° 0 mm 5 m/s 758 mmHg 74%
    16:00 +28°C° 0 mm 5 m/s 758 mmHg 76%
    17:00 +28°C° 0 mm 5 m/s 759 mmHg 79%
    18:00 +27°C° 0 mm 4 m/s 759 mmHg 83%
    19:00 +26°C° 0 mm 4 m/s 760 mmHg 86%
    20:00 +26°C° 0 mm 4 m/s 760 mmHg 87%
    21:00 +26°C° 0 mm 4 m/s 760 mmHg 87%
    22:00 +26°C° 0 mm 4 m/s 760 mmHg 88%
    23:00 +26°C° 0.1 mm 4 m/s 760 mmHg 89%

    26 Octobre, Samedi

    Heure Température Précipitation Vent Pression Humidité
    00:00 +26°C° 0.1 mm 4 m/s 760 mmHg 90%
    01:00 +25°C° 0.1 mm 4 m/s 759 mmHg 91%
    02:00 +25°C° 0.1 mm 4 m/s 759 mmHg 91%
    03:00 +25°C° 0.1 mm 4 m/s 759 mmHg 91%
    04:00 +25°C° 0.1 mm 4 m/s 759 mmHg 91%
    05:00 +26°C° 0.1 mm 4 m/s 760 mmHg 90%
    06:00 +26°C° 0.1 mm 4 m/s 760 mmHg 89%
    07:00 +27°C° 0.1 mm 4 m/s 761 mmHg 88%
    08:00 +28°C° 0.1 mm 5 m/s 761 mmHg 82%
    09:00 +29°C° 0.1 mm 5 m/s 761 mmHg 76%
    10:00 +30°C° 0.1 mm 6 m/s 761 mmHg 69%
    11:00 +30°C° 0 mm 6 m/s 760 mmHg 68%
    12:00 +30°C° 0 mm 6 m/s 760 mmHg 67%
    13:00 +30°C° 0 mm 6 m/s 759 mmHg 66%
    14:00 +30°C° 0 mm 6 m/s 759 mmHg 69%
    15:00 +29°C° 0 mm 6 m/s 759 mmHg 72%
    16:00 +28°C° 0 mm 5 m/s 759 mmHg 75%
    17:00 +27°C° 0 mm 5 m/s 759 mmHg 78%
    18:00 +27°C° 0 mm 5 m/s 759 mmHg 81%
    19:00 +26°C° 0 mm 4 m/s 760 mmHg 84%
    20:00 +26°C° 0 mm 4 m/s 760 mmHg 84%
    21:00 +26°C° 0 mm 4 m/s 760 mmHg 84%
    22:00 +26°C° 0 mm 4 m/s 761 mmHg 84%
    23:00 +26°C° 0.1 mm 4 m/s 760 mmHg 85%

    27 Octobre, Dimanche

    Heure Température Précipitation Vent Pression Humidité
    00:00 +26°C° 0.1 mm 4 m/s 760 mmHg 85%
    01:00 +26°C° 0.1 mm 4 m/s 760 mmHg 86%
    02:00 +26°C° 0.1 mm 4 m/s 760 mmHg 86%
    03:00 +26°C° 0.1 mm 4 m/s 760 mmHg 86%
    04:00 +26°C° 0.1 mm 4 m/s 759 mmHg 86%
    05:00 +26°C° 0 mm 4 m/s 760 mmHg 85%
    06:00 +26°C° 0 mm 4 m/s 760 mmHg 85%
    07:00 +26°C° 0 mm 4 m/s 760 mmHg 84%
    08:00 +28°C° 0 mm 5 m/s 760 mmHg 78%
    09:00 +29°C° 0 mm 5 m/s 761 mmHg 71%
    10:00 +30°C° 0 mm 5 m/s 761 mmHg 64%
    11:00 +30°C° 0 mm 5 m/s 760 mmHg 64%
    12:00 +30°C° 0 mm 5 m/s 759 mmHg 64%
    13:00 +30°C° 0 mm 5 m/s 758 mmHg 63%
    14:00 +29°C° 0 mm 5 m/s 758 mmHg 67%
    15:00 +29°C° 0 mm 5 m/s 758 mmHg 71%
    16:00 +28°C° 0 mm 4 m/s 758 mmHg 75%
    17:00 +27°C° 0 mm 4 m/s 758 mmHg 80%
    18:00 +26°C° 0 mm 4 m/s 759 mmHg 85%
    19:00 +25°C° 0 mm 4 m/s 759 mmHg 90%
    20:00 +25°C° 0.1 mm 4 m/s 759 mmHg 91%
    21:00 +25°C° 0.1 mm 3 m/s 759 mmHg 91%
    22:00 +25°C° 0.1 mm 3 m/s 759 mmHg 91%
    23:00 +25°C° 0.1 mm 3 m/s 759 mmHg 91%
    Voir plus